DO3HUM-5 Weather Reports


Display with metric or nautical units.
time (UTC)temp
F
wind
direction
speed
MPH
gust
MPH
rain 1hr
in
rain 24hr
in
rain mn
in
humidity
%
barometer
mb
20260903192108 66 284 3.0 9.0 0.00 0.01 0.01 75 1023.8
20260903190521 66 309 4.0 11.0 0.00 0.01 0.01 74 1023.9
20260903185608 66 358 4.0 14.0 0.00 0.01 0.01 74 1023.8
20260903184556 66 266 3.0 7.0 0.00 0.01 0.01 74 1023.9
20260903183522 66 314 3.0 8.0 0.00 0.01 0.01 74 1023.9
20260903182109 66 292 4.0 7.0 0.00 0.01 0.01 74 1023.9
20260903180521 66 293 3.0 7.0 0.00 0.01 0.01 75 1023.5
20260903175608 66 280 2.0 7.0 0.00 0.01 0.01 77 1023.5
20260903174556 66 357 1.0 2.0 0.00 0.01 0.01 76 1023.6
20260903173544 67 322 4.0 9.0 0.00 0.01 0.01 75 1023.7
20260903172534 67 298 5.0 11.0 0.00 0.01 0.01 75 1023.5
20260903171521 67 292 6.0 13.0 0.00 0.01 0.01 74 1023.5
20260903170109 67 290 5.0 16.0 0.00 0.01 0.01 73 1023.5
20260903164533 67 306 4.0 9.0 0.00 0.01 0.01 74 1023.6
20260903163521 67 316 5.0 14.0 0.00 0.01 0.01 74 1023.7
20260903162110 67 299 4.0 11.0 0.00 0.02 0.01 74 1023.7
20260903160519 67 266 4.0 14.0 0.00 0.02 0.01 73 1023.9
20260903155611 67 304 5.0 14.0 0.00 0.02 0.01 74 1024.1
20260903154109 66 302 4.0 8.0 0.00 0.02 0.01 76 1024.4
20260903152557 66 301 8.0 13.0 0.00 0.02 0.01 76 1024.1
20260903151611 66 298 5.0 11.0 0.00 0.02 0.01 76 1024.2
20260903150557 66 356 6.0 14.0 0.00 0.02 0.01 75 1024.2
20260903145613 67 166 5.0 14.0 0.01 0.02 0.01 74 1024.1
20260903144110 67 302 5.0 15.0 0.01 0.02 0.01 73 1024.0
20260903142556 67 38 6.0 18.0 0.01 0.02 0.01 73 1024.0
20260903141521 67 298 5.0 11.0 0.01 0.02 0.01 73 1023.8
20260903140032 66 246 3.0 6.0 0.01 0.02 0.01 79 1024.1
20260903135020 68 326 7.0 22.0 0.00 0.01 0.00 70 1024.0
20260903134109 67 301 4.0 11.0 0.00 0.01 0.00 72 1023.7
20260903132557 69 338 7.0 11.0 0.00 0.01 0.00 65 1023.6
20260903131608 67 317 5.0 15.0 0.00 0.01 0.00 69 1023.5
20260903130109 65 293 4.0 15.0 0.00 0.01 0.00 79 1023.5
20260903124555 70 305 4.0 8.0 0.00 0.01 0.00 72 1023.8
20260903123520 75 260 5.0 15.0 0.00 0.01 0.00 54 1023.1
20260903122057 75 293 8.0 13.0 0.00 0.01 0.00 53 1023.0
20260903121020 75 310 4.0 11.0 0.00 0.01 0.00 51 1023.0
20260903120109 74 299 5.0 15.0 0.00 0.01 0.00 51 1023.3
20260903114555 75 315 6.0 13.0 0.00 0.01 0.00 49 1023.4
20260903113520 74 304 4.0 11.0 0.00 0.01 0.00 52 1023.6
20260903112031 74 303 3.0 8.0 0.00 0.01 0.00 52 1023.9
20260903111020 73 299 3.0 11.0 0.00 0.01 0.00 53 1024.0
20260903110107 73 281 3.0 11.0 0.00 0.01 0.00 52 1024.1
20260903105056 74 302 3.0 9.0 0.00 0.01 0.00 51 1024.2
20260903104019 73 88 2.0 8.0 0.00 0.01 0.00 54 1024.4
20260903103108 72 319 2.0 8.0 0.00 0.01 0.00 54 1024.4
20260903102057 72 225 5.0 11.0 0.00 0.01 0.00 53 1024.3
20260903101056 72 81 1.0 6.0 0.00 0.01 0.00 54 1024.4
20260903100020 74 223 2.0 8.0 0.00 0.01 0.00 52 1024.6
20260903095108 71 323 2.0 7.0 0.00 0.01 0.00 54 1024.8
20260903094055 70 45 3.0 4.0 0.00 0.01 0.00 57 1025.2
20260903093055 70 302 3.0 7.0 0.00 0.01 0.00 57 1025.2
20260903092019 69 240 2.0 7.0 0.00 0.01 0.00 57 1025.2
20260903091108 69 250 2.0 7.0 0.00 0.01 0.00 58 1025.3
20260903090056 69 293 2.0 2.0 0.00 0.01 0.00 59 1025.6
20260903085106 68 306 3.0 7.0 0.00 0.01 0.00 59 1025.4
20260903084056 68 338 2.0 4.0 0.00 0.01 0.00 61 1025.6
20260903083020 67 302 2.0 11.0 0.00 0.01 0.00 63 1026.0
20260903082108 66 323 2.0 4.0 0.00 0.01 0.00 65 1026.0
20260903080543 66 259 2.0 4.0 0.00 0.01 0.00 66 1026.1
20260903075531 66 338 1.0 4.0 0.00 0.01 0.00 65 1026.0
20260903074521 65 315 1.0 4.0 0.00 0.01 0.00 69 1025.9
20260903073610 65 304 1.0 7.0 0.00 0.01 0.00 73 1026.0
20260903072109 63 101 1.0 4.0 0.00 0.01 0.00 77 1025.8
20260903070555 62 114 1.0 6.0 0.00 0.01 0.00 78 1025.9
20260903065543 62 121 2.0 4.0 0.00 0.01 0.00 78 1026.0
20260903064532 62 150 0.0 2.0 0.00 0.01 0.00 76 1026.1
20260903063520 62 0.0 2.0 0.00 0.01 0.00 77 1026.2
20260903062057 61 0.0 0.0 0.00 0.01 0.00 79 1026.6
20260903061108 60 90 0.0 2.0 0.00 0.01 0.00 82 1026.3
20260903055608 57 0.0 0.0 0.00 0.01 0.00 91 1026.6
20260903054032 54 0.0 0.0 0.00 0.01 0.00 94 1026.7
20260903053020 53 0.0 0.0 0.00 0.01 0.00 94 1026.6
20260903052109 52 0.0 0.0 0.00 0.01 0.00 94 1026.7
20260903050521 52 0.0 0.0 0.00 0.01 0.00 94 1026.5
20260903045607 52 0.0 0.0 0.00 0.01 0.00 94 1026.5
20260903044557 52 0.0 0.0 0.00 0.01 0.00 94 1026.4
20260903043555 52 0.0 0.0 0.00 0.01 0.00 93 1026.3
20260903042543 52 0.0 0.0 0.00 0.01 0.00 93 1026.3
20260903041527 52 0.0 0.0 0.00 0.01 0.00 93 1026.4
20260903040519 52 0.0 0.0 0.00 0.01 0.00 93 1026.5
20260903035608 53 0.0 0.0 0.00 0.01 0.00 93 1026.4
20260903034055 53 0.0 0.0 0.00 0.01 0.00 93 1026.6
20260903033021 53 0.0 0.0 0.00 0.01 0.00 94 1026.5
20260903032108 53 0.0 0.0 0.00 0.01 0.00 94 1026.7
20260903030556 53 0.0 0.0 0.00 0.01 0.00 94 1026.7
20260903025543 53 0.0 0.0 0.00 0.01 0.00 94 1026.8
20260903024531 53 0.0 0.0 0.00 0.01 0.00 94 1026.8
20260903023521 53 0.0 0.0 0.00 0.01 0.00 94 1026.9
20260903022108 53 0.0 0.0 0.00 0.01 0.00 94 1026.8
20260903020557 53 0.0 0.0 0.00 0.01 0.00 94 1026.8
20260903015543 53 0.0 0.0 0.00 0.01 0.00 94 1026.8
20260903014532 53 0.0 0.0 0.00 0.01 0.00 94 1026.8
20260903013520 53 0.0 0.0 0.00 0.01 0.00 94 1026.9
20260903012031 53 0.0 0.0 0.00 0.01 0.00 94 1026.8
20260903011019 54 0.0 0.0 0.00 0.01 0.00 94 1027.0
20260903010108 54 0.0 0.0 0.00 0.01 0.00 94 1027.1
20260903004544 53 0.0 0.0 0.00 0.01 0.00 94 1027.1
20260903003531 53 0.0 0.0 0.00 0.01 0.00 94 1027.0
20260903002519 53 0.0 0.0 0.00 0.01 0.00 94 1027.1
20260903001608 53 0.0 0.0 0.00 0.01 0.00 94 1027.1
20260903000556 53 0.0 0.0 0.00 0.01 0.00 94 1027.0
20260902235549 54 0.0 0.0 0.00 0.01 0.00 94 1027.1
20260902234533 53 0.0 0.0 0.00 0.01 0.00 94 1027.1
20260902233520 53 0.0 0.0 0.00 0.01 0.00 94 1027.2
20260902232056 54 0.0 0.0 0.00 0.01 0.00 94 1027.1
20260902231033 55 0.0 0.0 0.00 0.01 0.00 94 1027.1
20260902230021 55 0.0 0.0 0.00 0.01 0.00 94 1027.2
20260902225109 55 0.0 0.0 0.00 0.01 0.00 94 1027.1
20260902224055 55 0.0 0.0 0.00 0.01 0.00 94 1027.1
20260902223019 55 0.0 0.0 0.00 0.01 0.00 93 1027.1
20260902222109 55 0.0 0.0 0.00 0.01 0.00 93 1027.1
20260902220555 56 0.0 0.0 0.00 0.01 0.00 93 1027.1
20260902215608 56 0.0 0.0 0.00 0.01 0.01 93 1026.9
20260902214108 57 0.0 0.0 0.00 0.01 0.01 93 1026.9
20260902212534 57 0.0 0.0 0.00 0.01 0.01 93 1026.9
20260902211520 57 0.0 0.0 0.00 0.01 0.01 93 1026.9
20260902210055 57 0.0 0.0 0.00 0.01 0.01 92 1026.7
20260902205108 58 0.0 0.0 0.00 0.01 0.01 92 1026.8
20260902204055 58 0.0 0.0 0.00 0.01 0.01 92 1026.8
20260902203055 58 0.0 0.0 0.00 0.01 0.01 92 1026.8
20260902202044 58 0.0 0.0 0.00 0.01 0.01 92 1026.7
20260902200607 58 0.0 0.0 0.00 0.01 0.01 92 1026.8
20260902195555 58 0.0 0.0 0.00 0.01 0.01 91 1026.7
20260902194545 58 0.0 0.0 0.00 0.01 0.01 91 1026.7